Regional Weather Roundup
Issued by NWS

Home | Current Version | Previous Version | Graphics & Text | Print | Product List | Glossary On
Versions: 1 2 3 4 5 6 7 8 9 10 11 12 13 14 15 16 17 18 19 20 21 22 23 24 25 26 27 28 29 30 31 32 33 34 35 36 37 38 39 40 41 42 43 44 45 46 47 48 49 50
000
ASUS43 KLMK 171802
RWRKY
KENTUCKY REGIONAL WEATHER ROUNDUP
NATIONAL WEATHER SERVICE LOUISVILLE KY
100 PM EST SAT FEB 17 2018

NOTE "FAIR" INDICATES FEW OR NO CLOUDS BELOW 12,000 FEET
WITH NO SIGNIFICANT WEATHER AND/OR OBSTRUCTIONS TO VISIBILITY.

KYZ001>023-026-027-061>063-070>075-171900-
WESTERN AND SOUTH CENTRAL KENTUCKY

CITY           SKY/WX    TMP DP  RH WIND       PRES   REMARKS
PADUCAH        LGT RAIN  40  36  86 CALM      30.06R FOG
HENDERSON      LGT RAIN  35  34  96 NE6       30.08F FOG     WCI  30
OWENSBORO      LGT RAIN  35  34  96 NE9       30.07F FOG     WCI  28
HOPKINSVILLE   LGT RAIN  39  39  99 SE8       30.02F FOG     WCI  34
BOWLING GREEN  RAIN      39  39 100 SE6       30.06F FOG     WCI  35
GLASGOW        NOT AVBL
$$

KYZ024-025-028>034-038-045-046-053-171900-
NORTH CENTRAL KENTUCKY

CITY           SKY/WX    TMP DP  RH WIND       PRES   REMARKS
LOUISVILLE/SDF LGT SNOW  33  32  96 NE3       30.06F FOG
LOUISVILLE/LOU LGT SNOW  33  33 100 NE3       30.07F VSB 3/4
FORT KNOX      LGT SNOW  33  33  99 E3        30.06F FOG
$$

KYZ035>037-039>044-047>052-055>060-089>105-171900-
NORTHEAST KENTUCKY

CITY           SKY/WX    TMP DP  RH WIND       PRES   REMARKS
LEXINGTON      RAIN      36  33  89 NE6       30.04F FOG     WCI  31
COVINGTON      SNOW      33  33 100 CALM      30.07F VSB 1/2
FRANKFORT      LGT SNOW  34  31  88 N3        30.05F VSB 1
$$

KYZ054-064>069-076>088-106>120-171900-
SOUTHEAST KENTUCKY

CITY           SKY/WX    TMP DP  RH WIND       PRES   REMARKS
JACKSON        LGT RAIN  38  36  92 VRB3      30.09R FOG
LONDON         HVY RAIN  40  38  93 N6        30.06S FOG
SOMERSET       RAIN      39  39 100 N6        30.07F WCI  35
MIDDLESBORO    LGT SNOW  44  44 100 W3G9      30.04R VSB 1
MONTICELLO     NOT AVBL
$$




USA.gov is the U.S. government's official web portal to all federal, state and local government web resources and services.